VCP5T EHRD-ESMS

Flight info

Callsign VCP5T
Flight time N/A
Altitude 39000
Route INKET DCT NARSO DCT WSN L23 HAM P605 KOSMO L983 DETUS
Aircraft CRJ7/M-SDFGIRWY/S

Departure

Time 2026-05-06 10:03
Airport Rotterdam The Hague Airport (EHRD)

Arrival

Time N/A
Airport Malmö Sturup Airport (ESMS)
Time Latitude Longitude Altitude Speed Heading
2026-05-06 09:39 51.94993 4.43448 -1 ft 0 kts 326°
2026-05-06 09:58 51.94994 4.43448 -1 ft 1 kts 326°
2026-05-06 09:58 51.95024 4.43427 -1 ft 6 kts
2026-05-06 09:58 51.95054 4.43481 -1 ft 9 kts 58°
2026-05-06 09:58 51.95093 4.43567 -1 ft 9 kts 29°
2026-05-06 09:59 51.95148 4.43536 -1 ft 9 kts 328°
2026-05-06 09:59 51.95213 4.43466 -1 ft 12 kts 326°
2026-05-06 09:59 51.95238 4.43381 -1 ft 8 kts 233°
2026-05-06 09:59 51.95192 4.43275 -1 ft 13 kts 236°
2026-05-06 10:00 51.95144 4.43142 -1 ft 14 kts 245°
2026-05-06 10:00 51.95110 4.43025 -1 ft 5 kts 252°
2026-05-06 10:00 51.95110 4.43024 -1 ft 0 kts 252°
2026-05-06 10:01 51.95107 4.42987 -1 ft 10 kts 273°
2026-05-06 10:01 51.95157 4.42899 -1 ft 11 kts 327°
2026-05-06 10:01 51.95223 4.42864 0 ft 9 kts 40°
2026-05-06 10:01 51.95236 4.42890 0 ft 0 kts 57°
2026-05-06 10:02 51.95237 4.42894 0 ft 4 kts 57°
2026-05-06 10:02 51.95359 4.43195 -1 ft 62 kts 57°
2026-05-06 10:02 51.95695 4.44045 -1 ft 114 kts 57°
2026-05-06 10:02 51.96169 4.45246 169 ft 135 kts 57°
2026-05-06 10:03 51.96663 4.46593 652 ft 138 kts 57°
2026-05-06 10:03 51.97113 4.47926 1268 ft 134 kts 60°
2026-05-06 10:03 51.97524 4.49259 1874 ft 133 kts 62°
2026-05-06 10:03 51.97981 4.50717 2087 ft 163 kts 60°
2026-05-06 10:04 51.98571 4.52508 2188 ft 196 kts 60°
2026-05-06 10:04 51.99281 4.54636 2378 ft 228 kts 60°
2026-05-06 10:04 51.99968 4.57045 3017 ft 243 kts 76°
2026-05-06 10:04 51.99741 4.59765 3873 ft 254 kts 114°
2026-05-06 10:05 51.98729 4.62171 4712 ft 262 kts 124°
2026-05-06 10:05 51.97479 4.64364 5505 ft 270 kts 140°
2026-05-06 10:05 51.95833 4.65885 6453 ft 274 kts 153°
2026-05-06 10:05 51.94096 4.67279 7279 ft 281 kts 154°
2026-05-06 10:06 51.92315 4.68563 8062 ft 286 kts 156°
2026-05-06 10:06 51.90486 4.69873 8849 ft 289 kts 155°
2026-05-06 10:06 51.88657 4.71280 9661 ft 293 kts 154°
2026-05-06 10:06 51.86819 4.72764 10408 ft 297 kts 153°
2026-05-06 10:07 51.85076 4.74585 10911 ft 308 kts 133°
2026-05-06 10:07 51.83994 4.77650 11198 ft 326 kts 102°
2026-05-06 10:07 51.83953 4.81354 11505 ft 338 kts 76°
2026-05-06 10:07 51.84921 4.84809 12086 ft 340 kts 55°
2026-05-06 10:08 51.86343 4.87870 12822 ft 341 kts 49°
2026-05-06 10:08 51.87861 4.90829 13490 ft 345 kts 48°
2026-05-06 10:08 51.89398 4.93778 14057 ft 348 kts 49°
2026-05-06 10:08 51.90948 4.96826 14635 ft 353 kts 50°
2026-05-06 10:09 51.92478 4.99976 15162 ft 358 kts 52°
2026-05-06 10:09 51.94005 5.03185 15722 ft 362 kts 52°
2026-05-06 10:09 51.95550 5.06414 16209 ft 367 kts 52°
2026-05-06 10:09 51.97122 5.09714 16743 ft 371 kts 53°
2026-05-06 10:10 51.98706 5.13044 17285 ft 375 kts 53°
2026-05-06 10:10 52.00307 5.16415 17823 ft 379 kts 53°
2026-05-06 10:10 52.01928 5.19825 18291 ft 383 kts 53°
2026-05-06 10:10 52.03549 5.23259 18780 ft 385 kts 54°
2026-05-06 10:11 52.05193 5.26723 19159 ft 390 kts 53°
2026-05-06 10:11 52.06846 5.30230 19624 ft 392 kts 53°
2026-05-06 10:11 52.08514 5.33750 20037 ft 395 kts 54°
2026-05-06 10:11 52.10171 5.37263 20457 ft 397 kts 53°
2026-05-06 10:12 52.11854 5.40848 20873 ft 400 kts 54°
2026-05-06 10:12 52.13546 5.44451 21334 ft 401 kts 53°
2026-05-06 10:12 52.15245 5.48070 21740 ft 403 kts 53°
2026-05-06 10:12 52.16965 5.51717 22095 ft 407 kts 54°
2026-05-06 10:13 52.18690 5.55405 22444 ft 411 kts 53°
2026-05-06 10:13 52.20430 5.59117 22807 ft 413 kts 54°
2026-05-06 10:13 52.22170 5.62865 23197 ft 415 kts 54°
2026-05-06 10:13 52.23924 5.66626 23481 ft 418 kts 54°
2026-05-06 10:14 52.25689 5.70424 23780 ft 420 kts 54°
2026-05-06 10:14 52.27458 5.74223 24122 ft 420 kts 54°
2026-05-06 10:14 52.29227 5.78023 24471 ft 421 kts 54°
2026-05-06 10:14 52.30980 5.81792 24716 ft 423 kts 54°
2026-05-06 10:15 52.32755 5.85633 25034 ft 423 kts 54°
2026-05-06 10:15 52.34537 5.89480 25283 ft 426 kts 54°
2026-05-06 10:15 52.36324 5.93350 25583 ft 426 kts 55°
2026-05-06 10:15 52.38117 5.97230 25779 ft 429 kts 54°
2026-05-06 10:16 52.39913 6.01149 26066 ft 430 kts 54°
2026-05-06 10:16 52.41725 6.05074 26308 ft 433 kts 54°
2026-05-06 10:16 52.43534 6.09029 26591 ft 433 kts 54°
2026-05-06 10:16 52.45349 6.12986 26798 ft 435 kts 55°
2026-05-06 10:17 52.47167 6.16960 27058 ft 435 kts 55°
2026-05-06 10:17 52.48990 6.20948 27243 ft 437 kts 55°
2026-05-06 10:17 52.50816 6.24955 27472 ft 438 kts 54°
2026-05-06 10:17 52.52622 6.28913 27661 ft 439 kts 55°
2026-05-06 10:18 52.54442 6.32939 27860 ft 440 kts 55°
2026-05-06 10:18 52.56282 6.36983 28055 ft 441 kts 55°
2026-05-06 10:18 52.58115 6.41032 28323 ft 440 kts 55°
2026-05-06 10:18 52.59946 6.45072 28531 ft 442 kts 56°
2026-05-06 10:19 52.61782 6.49138 28716 ft 443 kts 56°
2026-05-06 10:19 52.63616 6.53208 29037 ft 440 kts 55°
2026-05-06 10:19 52.65425 6.57230 29485 ft 435 kts 55°
2026-05-06 10:19 52.67229 6.61233 29745 ft 434 kts 56°
2026-05-06 10:20 52.69023 6.65232 29978 ft 433 kts 56°
2026-05-06 10:20 52.70774 6.69197 30149 ft 432 kts 58°
2026-05-06 10:20 52.72335 6.73405 30300 ft 431 kts 63°
2026-05-06 10:20 52.73739 6.77787 30460 ft 431 kts 66°
2026-05-06 10:21 52.75037 6.82245 30609 ft 431 kts 66°
2026-05-06 10:21 52.76327 6.86709 30754 ft 431 kts 66°
2026-05-06 10:21 52.77635 6.91170 30902 ft 432 kts 65°
2026-05-06 10:21 52.78975 6.95611 31053 ft 432 kts 65°
2026-05-06 10:22 52.80314 7.00053 31207 ft 432 kts 66°
2026-05-06 10:22 52.81661 7.04513 31277 ft 434 kts 66°
2026-05-06 10:22 52.83007 7.08991 31385 ft 435 kts 66°
2026-05-06 10:22 52.84358 7.13489 31546 ft 436 kts 66°
2026-05-06 10:23 52.85700 7.17977 31702 ft 437 kts 66°
2026-05-06 10:23 52.87051 7.22502 31834 ft 438 kts 66°
2026-05-06 10:23 52.88405 7.27028 31948 ft 439 kts 66°
2026-05-06 10:23 52.89759 7.31567 32101 ft 439 kts 66°
2026-05-06 10:24 52.91093 7.36063 32299 ft 440 kts 67°
2026-05-06 10:24 52.92444 7.40617 32482 ft 441 kts 67°
2026-05-06 10:24 52.93800 7.45194 32616 ft 442 kts 67°
2026-05-06 10:24 52.95152 7.49764 32730 ft 441 kts 67°
2026-05-06 10:25 52.98014 7.58865 32699 ft 448 kts 62°
2026-05-06 10:25 52.99636 7.63232 33195 ft 439 kts 60°
2026-05-06 10:25 53.01341 7.67414 33494 ft 437 kts 59°
2026-05-06 10:26 53.04835 7.75719 33609 ft 439 kts 58°
2026-05-06 10:26 53.06544 7.79841 33813 ft 438 kts 59°
2026-05-06 10:26 53.08256 7.84044 33976 ft 439 kts 59°
2026-05-06 10:27 53.09964 7.88246 34135 ft 439 kts 59°
2026-05-06 10:27 53.11674 7.92454 34288 ft 439 kts 59°
2026-05-06 10:27 53.13387 7.96680 34440 ft 440 kts 59°
2026-05-06 10:27 53.15097 8.00908 34581 ft 440 kts 59°
2026-05-06 10:28 53.16807 8.05143 34725 ft 441 kts 59°
2026-05-06 10:28 53.18517 8.09384 34867 ft 441 kts 59°
2026-05-06 10:28 53.20230 8.13640 35010 ft 442 kts 59°
2026-05-06 10:28 53.21939 8.17899 35156 ft 442 kts 59°
2026-05-06 10:29 53.23650 8.22162 35307 ft 442 kts 59°
2026-05-06 10:29 53.25364 8.26449 35485 ft 443 kts 59°
2026-05-06 10:29 53.27077 8.30731 35676 ft 444 kts 59°
2026-05-06 10:29 53.28792 8.35030 35870 ft 445 kts 59°
2026-05-06 10:30 53.30508 8.39341 36059 ft 445 kts 59°
2026-05-06 10:30 53.32227 8.43659 36229 ft 446 kts 59°
2026-05-06 10:30 53.33945 8.47995 36394 ft 446 kts 58°
2026-05-06 10:30 53.35668 8.52336 36552 ft 447 kts 58°
2026-05-06 10:31 53.37364 8.56626 36662 ft 447 kts 58°
2026-05-06 10:31 53.39084 8.60979 36771 ft 448 kts 58°
2026-05-06 10:31 53.40794 8.65343 36915 ft 448 kts 59°
2026-05-06 10:31 53.42500 8.69717 37048 ft 448 kts 58°